SCP
0 0 0 0 0 0 0 0 0 0 0 0 0 0 0 0 0 0 0 0 0 0 0 0 0 1 1 1 1 1 1 2 1 1 1 2 2 2
0 0 0 0 0 0 0 0 0 0 0 0 0 0 0 0 0 0 0 0 0 0 0 0 0 0 0 0 0 1 1 1 1 1 1 1 1 1
0 0 0 0 0 0 0 0 0 0 0 0 0 0 0 0 0 0 0 0 0 0 0 0 0 0 0 0 0 0 0 1 1 1 1 1 1 1
0 0 0 0 0 0 0 0 0 0 0 0 0 0 0 0 0 0 0 0 0 0 0 0 0 0 0 0 0 0 0 0 0 0 0 0 0 1
0 0 0 0 0 0 0 0 0 0 0 0 0 0 0 0 0 0 0 0 0 0 0 0 0 0 0 0 0 0 0 0 0 0 0 0 0 0
0 0 0 0 0 0 0 0 0 0 0 0 0 0 0 0 0 0 0 0 0 0 0 0 0 0 0 0 0 0 0 0 0 0 0 0 0 0
1 1 0 0 0 0 0 0 0 0 0 0 0 0 0 0 0 0 0 0 0 0 0 0 0 0 0 0 0 0 0 0 0 0 0 0 0 0
1 1 1 0 0 0 0 0 0 0 0 0 0 0 0 0 0 0 0 0 0 1 0 0 0 0 0 0 0 0 0 0 0 0 0 0 0 0
2 1 1 1 0 0 0 0 0 0 0 0 0 0 0 0 0 0 0 0 0 1 0 0 0 0 0 0 0 0 0 0 0 0 0 0 0 0
2 2 1 1 0 0 0 0 0 0 0 0 0 0 0 0 0 0 0 0 0 1 0 0 0 0 0 0 0 0 0 0 0 0 0 0 0 0
1 1 1 1 0 0 0 0 1 0 0 0 0 0 0 0 0 0 0 0 0 0 1 1 0 0 0 0 0 0 0 0 0 0 0 0 0 0
1 1 1 0 0 0 0 0 1 1 1 1 1 0 0 0 0 0 0 0 0 0 0 1 0 0 0 0 0 0 0 0 0 0 0 0 0 0
1 1 1 0 0 0 0 0 0 1 1 1 1 1 1 1 1 1 0 0 0 0 0 1 1 0 0 0 0 1 1 0 0 0 0 0 0 0
1 1 0 0 0 0 0 0 0 0 1 1 1 1 2 2 1 1 1 1 0 0 0 0 1 1 1 1 1 1 1 1 0 0 0 0 0 0
1 0 0 0 0 0 0 0 0 0 0 1 1 1 2 3 2 1 1 1 1 0 0 0 1 1 1 1 1 1 1 1 1 1 1 0 0 0
0 0 0 0 0 0 0 0 1 1 1 1 1 2 3 3 2 1 1 1 1 1 1 1 1 1 1 1 1 1 1 1 1 1 1 1 1 1
0 0 0 1 1 1 1 1 1 1 1 1 1 2 2 3 2 2 2 1 1 1 1 1 1 1 1 1 1 1 1 1 1 1 1 1 1 1
0 0 1 1 1 2 2 2 2 2 2 2 2 2 2 2 2 2 2 1 1 1 1 1 1 1 1 1 1 1 1 1 1 1 1 1 1 0
0 0 1 1 1 2 2 2 2 2 2 2 2 2 2 2 2 2 2 1 1 1 1 1 1 1 1 1 0 0 0 1 1 1 1 1 0 0
0 0 1 1 1 1 2 2 2 2 2 2 2 1 1 1 1 1 1 1 1 1 1 1 1 1 1 1 0 0 0 0 1 1 1 1 0 0
0 1 1 1 1 1 1 2 2 2 2 2 1 1 1 1 1 1 1 1 1 1 0 0 1 1 1 1 0 0 0 0 0 1 1 1 1 1
1 1 1 1 1 1 1 1 1 1 2 2 1 1 1 1 1 1 1 1 1 1 0 0 1 1 1 0 0 0 0 0 0 0 0 0 0 0
1 1 1 1 1 1 1 1 1 1 1 1 1 1 1 1 1 1 1 1 1 1 1 1 1 1 1 0 0 0 0 0 0 0 0 0 0 0
Wind_Speed
3 3 4 3 4 4 4 5 7 8 6 3 4 2 4 4 3 6 7 2 3 5 6 6 7 8 9 9 11 13 15 16 17 17 18 19 19 20
3 3 4 4 3 4 5 5 6 7 8 6 5 6 6 7 5 7 8 6 9 9 8 7 8 8 9 10 11 12 13 15 16 17 18 18 18 18
5 5 5 5 5 5 5 5 6 7 8 8 7 6 7 9 8 8 9 9 8 10 9 8 9 9 10 10 11 12 12 14 15 17 17 17 18 19
6 6 6 5 6 7 6 7 6 7 9 10 9 8 8 8 9 9 10 9 9 7 9 10 10 11 11 11 11 12 12 12 13 15 16 17 18 20
6 7 7 7 7 6 7 7 7 7 7 9 10 7 8 8 8 9 10 8 10 9 10 12 13 13 12 12 12 12 12 13 13 13 14 15 16 18
7 7 8 8 8 8 7 8 8 8 8 9 9 8 8 8 7 8 9 7 8 9 8 8 10 12 13 13 13 14 13 13 14 14 14 14 15 16
8 8 9 8 7 8 8 8 8 8 9 9 9 9 8 7 8 8 9 8 9 8 9 9 9 9 11 14 16 15 14 14 14 14 14 15 15 16
8 9 9 10 11 13 13 13 12 11 11 10 10 10 10 10 8 9 9 10 10 7 7 9 8 9 9 10 9 12 14 14 14 14 15 15 16 16
9 9 9 8 8 10 12 15 16 17 16 13 14 13 12 10 10 12 10 11 11 9 9 11 10 10 10 9 8 9 11 13 14 14 15 15 15 16
11 11 11 11 10 9 11 11 12 12 13 14 13 14 13 11 11 11 12 13 13 11 11 12 11 11 10 10 9 12 13 14 14 14 15 15 15 16
12 12 12 12 9 8 11 13 13 12 12 15 15 14 13 12 11 11 12 12 12 11 9 11 11 11 11 11 10 13 15 15 15 15 15 15 15 14
10 11 12 14 11 9 12 13 14 13 12 11 12 14 15 15 15 14 13 12 13 12 9 9 11 10 11 10 9 8 10 14 16 16 16 15 14 11
10 10 9 11 14 13 13 13 14 12 13 13 13 12 12 11 12 12 13 12 13 13 10 9 10 10 11 10 9 9 9 9 10 12 15 16 16 14
11 11 9 5 10 12 12 13 13 11 12 12 12 11 11 10 10 10 11 12 13 14 13 13 11 11 12 12 11 9 9 9 9 10 9 12 15 17
11 12 12 9 9 11 16 16 13 12 12 13 13 12 11 10 9 9 11 12 14 15 15 15 15 13 12 13 13 12 11 10 10 10 10 9 9 10
11 11 14 16 15 14 13 12 12 12 12 12 12 12 10 10 10 10 10 10 10 11 13 16 16 16 14 15 13 13 12 11 10 9 9 9 9 9
8 10 11 11 11 11 11 11 11 11 11 12 12 11 11 10 10 9 9 10 11 11 11 10 12 13 16 14 13 13 13 12 12 10 9 10 10 10
8 11 12 12 12 11 11 10 10 10 10 11 11 11 11 11 10 9 9 10 11 11 11 10 9 9 10 12 14 15 14 13 12 11 10 11 11 10
9 12 12 12 11 11 10 10 10 10 9 9 10 10 10 10 10 10 10 10 11 11 11 10 10 10 12 13 13 16 14 12 11 11 11 11 11 10
11 12 12 11 10 10 11 11 10 10 9 9 10 10 10 10 10 11 10 12 11 11 11 10 10 11 12 13 11 10 14 14 12 12 11 10 10 9
10 10 10 10 10 10 10 10 10 10 10 9 9 10 10 10 10 11 10 11 11 11 12 12 10 11 10 10 11 12 10 14 13 11 10 9 9 9
10 10 10 10 10 10 9 9 10 10 10 9 10 10 10 9 11 12 11 10 10 11 12 11 9 8 10 12 13 13 12 10 11 14 13 11 10 9
9 10 10 10 10 8 8 9 11 10 9 9 9 9 9 9 9 9 10 10 10 11 11 10 9 9 10 11 12 11 14 12 9 8 10 12 14 13
Wind_Direction
258 240 267 284 275 285 287 291 297 299 299 287 279 303 297 301 317 295 294 295 287 279 274 269 263 253 246 242 238 233 230 230 230 230 230 228 229 229
271 289 283 279 284 275 276 278 280 288 293 302 298 296 314 305 286 290 285 270 249 245 253 259 262 260 253 246 239 234 231 230 229 229 229 227 227 228
251 251 257 279 281 281 271 272 273 277 283 289 291 292 288 285 294 292 282 275 262 219 227 245 255 256 255 251 244 236 233 231 229 229 229 228 228 228
253 258 261 256 255 268 276 273 274 279 279 287 292 290 284 282 280 281 280 274 277 239 220 236 247 251 251 249 246 240 236 235 233 231 231 230 230 230
254 256 260 263 263 266 269 273 275 271 272 280 283 288 284 280 283 277 277 273 274 260 227 227 234 241 245 246 243 241 237 235 235 235 234 234 234 234
253 256 260 260 261 265 264 263 268 276 273 272 277 280 278 276 272 276 278 269 269 275 270 259 240 232 237 239 238 236 236 236 235 235 236 237 237 236
254 254 254 257 271 270 276 280 277 273 276 276 278 281 283 288 285 289 286 287 276 271 271 265 254 246 235 229 229 230 231 233 235 235 236 237 238 238
259 260 258 237 234 231 243 256 266 270 275 281 281 282 284 285 286 286 288 285 283 278 275 273 268 264 259 254 231 212 219 228 232 235 236 236 237 238
263 264 266 265 241 250 234 227 238 242 247 263 275 279 283 284 286 284 280 282 285 290 287 279 273 267 263 259 222 216 224 230 235 237 238 237 235 235
259 259 261 267 261 259 265 262 261 251 239 238 253 264 270 278 277 275 279 276 271 264 260 267 270 269 269 266 228 216 225 232 237 238 239 239 237 236
257 257 258 261 252 233 254 263 267 267 253 237 244 255 266 270 270 273 270 269 270 268 255 257 266 270 268 263 250 216 220 228 232 235 237 237 236 236
257 254 244 243 251 224 246 258 264 268 273 266 242 241 248 248 236 243 259 266 270 272 266 260 264 268 271 264 257 240 227 225 225 228 230 231 228 231
269 267 265 214 223 228 237 254 261 271 274 271 267 260 251 248 243 236 239 251 263 267 271 267 267 267 267 274 274 265 260 256 236 229 223 223 218 220
273 275 278 220 219 228 235 247 253 259 263 264 264 262 261 258 254 251 248 249 254 263 271 274 272 271 272 272 271 266 258 255 256 256 248 213 211 218
267 277 285 277 252 245 240 239 240 244 252 257 260 261 262 262 262 259 255 252 254 255 256 253 254 258 259 262 268 269 269 263 256 252 250 245 234 219
255 263 250 248 246 258 261 237 234 244 251 257 262 264 265 260 253 253 257 257 255 256 247 243 245 250 254 255 259 263 263 263 261 256 252 250 245 238
309 283 276 269 259 250 249 250 249 245 243 250 258 261 261 259 256 254 254 259 260 263 264 254 239 236 244 253 258 258 259 259 256 255 252 253 249 240
276 270 271 271 270 270 268 263 255 253 252 253 255 257 259 258 258 257 253 253 256 260 262 262 255 246 244 243 238 252 255 256 256 251 247 250 251 244
249 264 269 271 271 272 272 271 269 266 263 261 262 259 256 257 256 256 255 254 255 258 260 261 257 250 250 254 242 221 241 252 253 251 246 245 250 250
253 266 272 274 275 276 276 276 275 272 267 261 260 260 258 258 258 256 255 255 257 259 261 258 253 248 250 260 267 253 221 240 250 251 250 249 251 252
276 279 280 280 278 278 278 277 275 273 271 269 265 261 259 258 257 257 258 257 256 260 261 259 255 248 253 260 260 258 247 224 237 251 255 253 251 245
286 286 285 284 283 281 279 276 274 271 270 266 267 265 262 260 259 258 259 258 255 256 262 264 260 248 245 247 253 258 259 250 229 232 245 251 252 249
288 287 284 282 280 278 275 273 274 275 275 274 273 270 267 263 262 261 260 261 263 263 263 264 261 252 248 248 253 258 259 257 250 236 235 228 231 244